Regional Weather Roundup
Issued by NWS San Diego, CA

Home | Current Version | Previous Version | Text Only | Print | Product List | Glossary On
Versions: 1 2 3 4 5 6 7 8 9 10 11 12 13 14 15 16 17 18 19 20 21 22 23 24 25 26 27 28 29 30 31 32 33 34 35 36 37 38 39 40 41 42 43 44 45 46 47 48 49 50
000
ASUS46 KSGX 240010
RWRSGX

SAN DIEGO HOURLY WEATHER ROUNDUP
NATIONAL WEATHER SERVICE SAN DIEGO CA
500 PM PDT WED JUL 23 2014

NOTE: "FAIR" INDICATES FEW OR NO CLOUDS BELOW 12,000 FEET WITH NO
SIGNIFICANT WEATHER AND/OR OBSTRUCTIONS TO VISIBILITY.

CAZ042-043-060-061-PZZ750-775-240100-

GREATER SAN DIEGO AREA

CITY           SKY/WX    TMP DP  RH WIND       PRES   REMARKS
LINDBERGH FLD  MOSUNNY   79  62  56 W13       29.92F
POINT LOMA       N/A     75  65  72 NW18        N/A
NATIONAL CITY    N/A     79  62  55 W9        29.91F
CHULA VISTA      N/A     83  69  61 W6        29.84F
IMPERIAL BEACH MOSUNNY   75  66  73 NW13      29.91F
BROWN FIELD    SUNNY     79  61  53 W12       29.91F
MIRAMAR MCAS   MOSUNNY   82  54  37 NW10      29.91F
MONTGOMERY FLD SUNNY     83  55  38 NW12      29.91F

$$

NORTH SAN DIEGO COUNTY

CITY           SKY/WX    TMP DP  RH WIND       PRES   REMARKS
CAMP PENDLETON MOSUNNY   82  54  37 W9        29.88F
OCEANSIDE AP   SUNNY     77  61  57 W8        29.89F
OCEANSIDE HBR    N/A     71  67  85 NW2       29.93F
VISTA            N/A     80  63  55 SW3       29.88F
CARLSBAD       SUNNY     75  60  59 W6        29.91F
DEL MAR          N/A     78  68  71 CALM      29.93F
LA JOLLA SCRIP   N/A     73  68  86 NW7       29.89
FALLBROOK        N/A     84  59  42 S3        29.88F
ESCONDIDO        N/A     86  61  42 W8        29.91F
SAN MARCOS       N/A     82  64  52 W3        29.89F
POWAY            N/A     91  58  32 NW3       29.89F
R. PENASQUITOS   N/A     85  62  45 CALM      29.91S

$$

EAST SAN DIEGO COUNTY

CITY           SKY/WX    TMP DP  RH WIND       PRES   REMARKS
RAMONA         SUNNY     91  50  24 W14G22    29.93F
GILLESPIE FLD  FAIR      91  54  27 W13       29.91F
LA MESA          N/A     86  61  43 CALM      29.83F
JAMUL            N/A     91  59  34 W3        29.88F
DESCANSO N       N/A     91  49  23 W3        29.79F
MT. LAGUNA OBS   N/A     83  38  20 W3        29.80F
CAMPO            N/A     96  41  15 NW15      29.95F

$$

ORANGE COUNTY AND THE LOS ANGELES BASIN

CITY           SKY/WX    TMP DP  RH WIND       PRES   REMARKS
JOHN WAYNE AP  MOSUNNY   83  53  35 W9        29.90F
LAGUNA BEACH     N/A     83  60  45 SW3       29.87F
LAKE FOREST FR   N/A     91  52  26 W3        29.80F
SANTA ANA        N/A     91  62  37 CALM      29.84F
HUNTINGTON BCH   N/A     77  64  65 NW7       29.92F
LOS ALAMITOS   MOSUNNY   89  56  33 W8        29.90S
FULLERTON      SUNNY     90  50  25 W9        29.89S
LONG BEACH     SUNNY     85  55  35 NW17      29.90F
L.A. AP        MOSUNNY   76  60  57 W21       29.90F
L.A. DOWNTOWN  SUNNY     82  57  42 W6        29.89F

$$

THE INLAND EMPIRE

CITY           SKY/WX    TMP DP  RH WIND       PRES   REMARKS
CORONA         SUNNY     93  55  27 MISG      29.88F
CHINO          MOSUNNY   93  50  23 W15       29.90S
ONTARIO        MOSUNNY   95  49  20 SW10      29.90F
SAN BERNARDINO MOSUNNY   99  45  15 W13       29.91
RIVERSIDE AP   SUNNY     95  50  21 W12       29.90S
RIV CYN CREST    N/A     95  60  31 W6        29.87F HX  95
MORENO VALLEY    N/A    100  48  17 W6        28.04F HX  96
MARCH ARB      MOSUNNY   99  44  15 NW13      29.93F HX  95
HORSETHIEF CYN   N/A     98  42  14 N8        29.89S
PERRIS           N/A     98  43  15 S3          N/A
MENIFEE          N/A    105  39  10 W6        29.95F HX  99
HEMET EAST       N/A    103  39  11 W1        29.86F HX  97
FRENCH VALLEY  FAIR      93  59  31 S10       29.91F
TEMECULA         N/A     95  60  30 S7        29.85F HX  95

$$

SAN BERNARDINO AND RIVERSIDE COUNTY MOUNTAINS

CITY           SKY/WX    TMP DP  RH WIND       PRES   REMARKS
BIG BEAR AP    SUNNY     81  23  12 W13       30.32F
BIG BEAR SHEA    N/A     82  20  10 NE6       29.98F
ANGELUS OAKS     N/A     87  45  22 W3        29.80F
PINE COVE        N/A     83  32  15 W3        29.90F

$$

SOUTHERN DESERT INCLUDING THE COACHELLA VALLEY

CITY           SKY/WX    TMP DP  RH WIND       PRES   REMARKS
PALM SPRINGS   SUNNY    115  30   5 NW16G26   29.75F HX 106
THOUSAND PALMS   N/A    113  30   6 NW12      29.70F HX 105
PALM DESERT      N/A    116  41   8 CALM      28.61S HX 109
THERMAL        SUNNY    117  30   5 S5        29.67F HX 107
BLYTHE         PTSUNNY  115  33   6 S8        29.72F HX 107
IMPERIAL AP    PTSUNNY  115  36   7 SE7       29.69F HX 107
EL CENTRO NAS  MOSUNNY  116  31   5 CALM      29.69F HX 107
MEXICALI       SUNNY    113  36   7 SW6       29.71  HX 106

$$

UPPER DESERT

CITY           SKY/WX    TMP DP  RH WIND       PRES   REMARKS
VICTORVILLE AP SUNNY    102  30   8 W13       29.98S HX  95
HESPERIA         N/A     97  38  13 SW9       29.95F
GRAY BUTTE AP  NOT AVBL
PALMDALE       SUNNY    100  27   7 W18       29.97F
LANCASTER      SUNNY     96  39  13 W24G31    29.96F
EDWARDS AFB    MOSUNNY  101  31   8 W14G21    29.92F HX  95
DAGGETT        SUNNY    108  26   6 W15G23    29.87F HX 100
29 PALMS N     MOSUNNY  108  23   5 NE7       29.94F HX  99
NEEDLES        SUNNY    115  29   5 SW10      29.76F HX 106

$$

REGIONAL REPORTS

CITY           SKY/WX    TMP DP  RH WIND       PRES   REMARKS
SANTA BARBARA  SUNNY     87  62  43 SE9       29.86F
SANDBERG       SUNNY     83  46  27 N17G28    30.17F
MT. WILSON       N/A     88  37  16 MISG        N/A
LAS VEGAS NV   MOSUNNY  109  22   4 SW15G24   29.81F HX 100
PHOENIX AZ     PTSUNNY  113  50  12 CALM      29.76F HX 110
TIJUANA        SUNNY     81  55  41 W18       29.93
ENSENADA NW      N/A     76  32  19 SE2       29.86F

$$

OFFSHORE ISLANDS

CITY           SKY/WX    TMP DP  RH WIND       PRES   REMARKS
CATALINA ARPT  SUNNY     73  57  57 W15       29.98F
SAN NICOLAS IS SUNNY    N/A N/A N/A NW33G43   29.96F

$$

MARINE AND OFFSHORE BUOY REPORTS

STATION/POSITION SKY/WX   TEMP    WIND        PRES    SWELL
                          AIR SEA DIR/SP/G            HT/PER/DIR
                          (F)     (DEG/KT/KT) (MB)    (FT/S/D)
TANNER BANKS               67 66  310/ 19/ 25 1014.8F
S CLEMENTE BASIN           70 71  300/ 19/ 23 1012.9F   2/280/11
SAN NICOLAS IS.               67                N/A     2/290/11
SO. S. ROSA ISLA           67 66  310/ 23/ 27 1013.9F   2/ 9
W. S. BARBARA CH           64 61  310/ 21/ 27 1014.2F   2/310/11
M. S. BARBARA CH           68 67  280/ 21/ 25 1012.4
S. MONICA BASIN            70 71  280/ 14/ 16 1012.4F   2/290/11
S PEDRO CHANNEL               69                N/A
DANA POINT                    70                N/A     2/190/12
CMP PENDLETON NS              69                N/A     2/210/18
TORREY PINES OTR              72                N/A     2/150/18
LA JOLLA 1                 71 66  330/  6/  7 1013.1F
MISSION BAY BUOY              71                N/A     2/240/11
SAN DIEGO BAY                 74              1013.2F
POINT LOMA SOUTH              70                N/A     2/260/11

$$




USA.gov is the U.S. government's official web portal to all federal, state and local government web resources and services.